Cozumel Airport, Mexico

9:19 PM EST on September 26, 2016 (GMT -0500)
Cozumel International

Weather History for MMCZ - September, 2011

Change the Weather History Date:

Saturday, September 17, 2011

  Actual Average Record
Temperature  
Mean Temperature 78 °F -  
Max Temperature 86 °F 88 °F 95 °F (1996)
Min Temperature 71 °F 76 °F 69 °F (2012)
Cooling Degree Days 14    
Growing Degree Days 28 (Base 50)    
Moisture  
Dew Point 73 °F    
Average Humidity 84    
Maximum Humidity 100    
Minimum Humidity 66    
Precipitation  
Precipitation 0.00 in - - ()
Sea Level Pressure  
Sea Level Pressure 29.97 in    
Wind  
Wind Speed 4 mph ()    
Max Wind Speed 14 mph    
Max Gust Speed 20 mph    
Visibility 7.5 miles    
Events      
Averages and records for this station are not official NWS values.
T = Trace of Precipitation, MM = Missing Value Source: Averaged Metar Reports

Daily Weather History Graph

Daily Weather History Graph

Search for Another Location

Airport or City:

Trip Planner

Search our weather history database for the weather conditions in past years. The results will help you decide how hot, cold, wet, or windy it might be!

Date:

Astronomy

Sep. 17, 2011 Rise Set
Actual Time 6:35 AM CDT 6:48 PM CDT
Civil Twilight 6:13 AM CDT 7:10 PM CDT
Nautical Twilight 5:47 AM CDT 7:36 PM CDT
Astronomical Twilight 5:21 AM CDT 8:02 PM CDT
Moon 10:07 PM CDT (9/17) 10:49 AM CDT (9/17)
Length of Visible Light 12h 57m
Length of Day
12h 13m
Waning Gibbous, 76% of the Moon is Illuminated
Sep 17
Waning Gibbous
Sep 20
Last Quarter
Sep 27
New
Oct 3
First Quarter
Oct 11
Full

Hourly Weather History & Observations

Time (CDT) Temp. Heat Index Dew Point Humidity Pressure Visibility Wind Dir Wind Speed Gust Speed Precip Events Conditions
12:40 AM 78.8 °F - 73.4 °F 83% 29.95 in 7.0 mi ENE 6.9 mph - N/A   Partly Cloudy
2:40 AM 75.2 °F - 71.6 °F 89% 29.96 in 7.0 mi Calm Calm - N/A   Partly Cloudy
3:48 AM 75.2 °F - 71.6 °F 89% 29.97 in 7.0 mi ESE 6.9 mph - N/A   Partly Cloudy
4:43 AM 73.4 °F - 71.6 °F 94% 29.95 in 7.0 mi ESE 3.5 mph - N/A   Partly Cloudy
5:49 AM 73.4 °F - 71.6 °F 94% 29.96 in 7.0 mi Calm Calm - N/A   Partly Cloudy
6:48 AM 73.4 °F - 73.4 °F 100% 29.93 in 7.0 mi Calm Calm - N/A   Partly Cloudy
7:53 AM 77.0 °F - 75.2 °F 94% 29.98 in 8.0 mi Calm Calm - N/A   Partly Cloudy
8:41 AM 80.6 °F 86.2 °F 75.2 °F 84% 29.99 in 8.0 mi ENE 5.8 mph - N/A   Scattered Clouds
9:41 AM 82.4 °F 88.2 °F 73.4 °F 74% 30.03 in 8.0 mi ENE 5.8 mph - N/A   Partly Cloudy
10:42 AM 84.2 °F 90.9 °F 73.4 °F 70% 30.01 in 8.0 mi East 6.9 mph - N/A   Scattered Clouds
11:44 AM 84.2 °F 90.9 °F 73.4 °F 70% 30.00 in 8.0 mi ENE 8.1 mph - N/A   Mostly Cloudy
12:41 PM 82.4 °F 88.2 °F 73.4 °F 74% 29.96 in 8.0 mi ENE 13.8 mph - N/A   Mostly Cloudy
1:42 PM 84.2 °F 90.9 °F 73.4 °F 70% 29.97 in 8.0 mi ENE 9.2 mph - N/A   Scattered Clouds
2:42 PM 82.4 °F 87.2 °F 71.6 °F 70% 29.95 in 8.0 mi East 11.5 mph - N/A   Scattered Clouds
3:48 PM 86.0 °F 93.4 °F 73.4 °F 66% 29.96 in 8.0 mi ENE 13.8 mph - N/A   Scattered Clouds
4:49 PM 82.4 °F 88.2 °F 73.4 °F 74% 29.92 in 8.0 mi ESE 8.1 mph 19.6 mph N/A   Scattered Clouds
5:45 PM 78.8 °F - 73.4 °F 83% 29.93 in 8.0 mi East 9.2 mph - N/A   Scattered Clouds
6:51 PM 77.0 °F - 71.6 °F 83% 29.91 in 8.0 mi ESE 4.6 mph - N/A   Partly Cloudy
7:41 PM 75.2 °F - 71.6 °F 89% 29.95 in 7.0 mi Calm Calm - N/A   Clear
8:43 PM 73.4 °F - 71.6 °F 94% 29.97 in 7.0 mi Calm Calm - N/A   Clear
9:45 PM 71.6 °F - 71.6 °F 100% 30.01 in 7.0 mi Calm Calm - N/A   Clear
10:56 PM 71.6 °F - 71.6 °F 100% 29.99 in 7.0 mi Calm Calm - N/A   Clear